Home   Weather   Avellino   Past weeks

Flag for Italy Past Weather in Avellino, Italy — Yesterday and Last 2 Weeks

Now
52 °F

Passing clouds.


Feels Like: 51 °F
Forecast: 51 / 75 °F
Wind: 5 mph from Northeast

Location: Trevico

Current Time: Sep 27, 2016 at 3:59:11 AM

Latest Report: Sep 27, 2016 at 2:55 AM


Visibility: N/A

Pressure: 30.18 "Hg

Humidity: 88%

Dew Point: 48 °F

Location of AvellinoLocation

Past Weather in Avellino — Graph

°F

Avellino Temperature Yesterday

Maximum temperature yesterday: 59 °F (at 1:55 PM)
Minimum temperature yesterday: 50 °F (at 6:55 AM)
Average temperature yesterday: 54 °F

High & Low Weather Summary for the Past Weeks

 TemperatureHumidityPressure
High68 °F (Sep 14, 3:55 PM)100% (Sep 19, 11:55 AM)30.33 "Hg (Sep 19, 11:55 AM)
Low50 °F (Sep 19, 1:55 AM)49% (Sep 16, 8:55 PM)29.83 "Hg (Sep 19, 5:55 AM)
Average57 °F81%30.10 "Hg
* Reported Sep 12 1:55 AM — Sep 27 1:55 AM, Avellino, Weather by CustomWeather, © 2016

Note: Actual official high and low records may vary slightly from our data, if they occured in-between our weather recording intervals... More about our weather records

Advertising

Avellino Weather History for the Previous 24 Hours

Scroll right to see more
 ConditionsComfort  
Time TempWeatherWind HumidityBarometerVisibility
1:55 AM
Tue, Sep 27
52 °FPassing clouds.5 mph94%30.18 "HgN/A
12:55 AM52 °FPassing clouds.8 mph88%30.18 "HgN/A
11:55 PM
Mon, Sep 26
52 °FPassing clouds.7 mph88%30.18 "HgN/A
10:55 PM52 °FPassing clouds.9 mph94%30.18 "HgN/A
9:55 PM54 °FPassing clouds.9 mph94%30.15 "HgN/A
8:55 PM55 °FPassing clouds.9 mph88%30.15 "HgN/A
7:55 PM55 °FPassing clouds.8 mph94%30.15 "HgN/A
6:55 PM55 °FPassing clouds.8 mph94%30.15 "HgN/A
5:55 PM57 °FScattered clouds.7 mph88%30.12 "HgN/A
3:55 PM59 °FScattered clouds.5 mph77%30.15 "HgN/A
2:55 PM59 °FScattered clouds.5 mph72%30.15 "HgN/A
1:55 PM59 °FScattered clouds.5 mph68%30.15 "HgN/A
12:55 PM57 °FScattered clouds.7 mph72%30.15 "HgN/A
11:55 AM57 °FScattered clouds.6 mph72%30.15 "HgN/A
10:55 AM55 °FPartly sunny.5 mph77%30.12 "HgN/A
9:55 AM54 °FPartly sunny.2 mph88%30.12 "HgN/A
8:55 AM52 °FFog.No wind94%30.09 "Hg0 mi
7:55 AM50 °FFog.5 mph94%30.09 "Hg0 mi
6:55 AM50 °FPassing clouds.5 mph100%30.09 "HgN/A
5:55 AM52 °FClear.2 mph100%30.09 "Hg10 mi
4:55 AM52 °FClear.5 mph100%30.09 "Hg10 mi
3:55 AM52 °FClear.3 mph100%30.12 "Hg10 mi
Weather by CustomWeather, © 2016

See weather overviewHow to use our weather pages